VSV372 UACC-UAAA

Flight info

Callsign VSV372
Flight time 1h 21m
Altitude 35000
Route BANOS W333 ETEDA ETEDA1P
Aircraft B752/M-SDE2E3FGHIJ3J4J7RWXY/LB1

Departure

Time 2026-04-20 14:30
Airport Nursultan Nazarbayev International Airport (UACC)

Arrival

Time 2026-04-20 15:51
Airport Almaty International Airport (UAAA)
Time Latitude Longitude Altitude Speed Heading
2026-04-20 14:03 51.02394 71.45849 1168 ft 0 kts 224°
2026-04-20 14:22 51.02392 71.45847 1168 ft 1 kts 224°
2026-04-20 14:22 51.02382 71.45836 1168 ft 1 kts 200°
2026-04-20 14:22 51.02367 71.45831 1168 ft 2 kts 185°
2026-04-20 14:23 51.02343 71.45843 1168 ft 5 kts 145°
2026-04-20 14:23 51.02309 71.45897 1168 ft 7 kts 119°
2026-04-20 14:23 51.02312 71.45959 1168 ft 5 kts 50°
2026-04-20 14:23 51.02338 71.46007 1168 ft 6 kts 50°
2026-04-20 14:24 51.02365 71.46053 1168 ft 5 kts 42°
2026-04-20 14:24 51.02391 71.46098 1168 ft 5 kts 57°
2026-04-20 14:24 51.02404 71.46149 1168 ft 3 kts 83°
2026-04-20 14:24 51.02389 71.46189 1168 ft 8 kts 138°
2026-04-20 14:25 51.02353 71.46285 1169 ft 5 kts 75°
2026-04-20 14:25 51.02383 71.46352 1169 ft 15 kts 47°
2026-04-20 14:25 51.02510 71.46552 1169 ft 29 kts 45°
2026-04-20 14:25 51.02652 71.46774 1170 ft 28 kts 43°
2026-04-20 14:26 51.02787 71.46984 1169 ft 26 kts 45°
2026-04-20 14:26 51.02915 71.47192 1168 ft 25 kts 43°
2026-04-20 14:26 51.03045 71.47392 1165 ft 25 kts 44°
2026-04-20 14:26 51.03169 71.47584 1165 ft 24 kts 44°
2026-04-20 14:27 51.03282 71.47763 1165 ft 22 kts 45°
2026-04-20 14:27 51.03363 71.47890 1165 ft 13 kts 45°
2026-04-20 14:27 51.03420 71.48013 1165 ft 11 kts 74°
2026-04-20 14:27 51.03422 71.48141 1165 ft 11 kts 90°
2026-04-20 14:28 51.03412 71.48270 1165 ft 17 kts 113°
2026-04-20 14:28 51.03361 71.48322 1165 ft 7 kts 183°
2026-04-20 14:28 51.03324 71.48287 1165 ft 5 kts 221°
2026-04-20 14:28 51.03322 71.48284 1165 ft 0 kts 223°
2026-04-20 14:29 51.03312 71.48269 1165 ft 9 kts 225°
2026-04-20 14:29 51.03077 71.47910 1165 ft 87 kts 225°
2026-04-20 14:29 51.02456 71.46933 1174 ft 160 kts 224°
2026-04-20 14:29 51.01575 71.45551 1584 ft 196 kts 223°
2026-04-20 14:30 51.00597 71.44015 2801 ft 200 kts 222°
2026-04-20 14:30 50.99700 71.42625 4288 ft 179 kts 222°
2026-04-20 14:30 50.98772 71.41184 4505 ft 202 kts 223°
2026-04-20 14:30 50.97725 71.39531 4890 ft 218 kts 223°
2026-04-20 14:31 50.96617 71.37802 5299 ft 234 kts 223°
2026-04-20 14:31 50.95412 71.35938 5735 ft 250 kts 223°
2026-04-20 14:31 50.93988 71.34276 6235 ft 262 kts 200°
2026-04-20 14:31 50.92211 71.33901 7002 ft 265 kts 172°
2026-04-20 14:32 50.90487 71.34978 7691 ft 275 kts 144°
2026-04-20 14:32 50.89091 71.37110 8422 ft 281 kts 136°
2026-04-20 14:32 50.87722 71.39333 9158 ft 285 kts 137°
2026-04-20 14:32 50.86326 71.41574 9905 ft 289 kts 137°
2026-04-20 14:33 50.84856 71.43752 10542 ft 296 kts 142°
2026-04-20 14:33 50.83225 71.45909 10823 ft 317 kts 142°
2026-04-20 14:33 50.81493 71.48219 11201 ft 335 kts 141°
2026-04-20 14:33 50.79673 71.50649 11840 ft 344 kts 141°
2026-04-20 14:34 50.77848 71.53087 12607 ft 348 kts 142°
2026-04-20 14:34 50.75990 71.55565 13326 ft 352 kts 142°
2026-04-20 14:34 50.74128 71.58047 14011 ft 356 kts 142°
2026-04-20 14:34 50.72240 71.60558 14689 ft 359 kts 142°
2026-04-20 14:35 50.70317 71.63114 15296 ft 364 kts 142°
2026-04-20 14:35 50.68350 71.65726 15927 ft 368 kts 143°
2026-04-20 14:35 50.66382 71.68338 16526 ft 371 kts 143°
2026-04-20 14:35 50.64414 71.70946 17094 ft 375 kts 143°
2026-04-20 14:36 50.62419 71.73586 17670 ft 379 kts 142°
2026-04-20 14:36 50.60379 71.76283 18217 ft 383 kts 142°
2026-04-20 14:36 50.58351 71.78962 18716 ft 387 kts 142°
2026-04-20 14:36 50.56263 71.81718 19262 ft 391 kts 142°
2026-04-20 14:37 50.54169 71.84476 19740 ft 396 kts 142°
2026-04-20 14:37 50.52068 71.87242 20256 ft 399 kts 143°
2026-04-20 14:37 50.49930 71.90050 20762 ft 403 kts 142°
2026-04-20 14:37 50.47779 71.92874 21225 ft 407 kts 142°
2026-04-20 14:38 50.45593 71.95741 21698 ft 411 kts 143°
2026-04-20 14:38 50.43391 71.98624 22138 ft 415 kts 142°
2026-04-20 14:38 50.41178 72.01519 22613 ft 418 kts 143°
2026-04-20 14:38 50.38947 72.04431 23045 ft 422 kts 142°
2026-04-20 14:39 50.36685 72.07382 23462 ft 426 kts 143°
2026-04-20 14:39 50.34400 72.10361 23923 ft 429 kts 142°
2026-04-20 14:39 50.32109 72.13341 24342 ft 432 kts 142°
2026-04-20 14:39 50.29779 72.16370 24811 ft 434 kts 142°
2026-04-20 14:40 50.27464 72.19380 25242 ft 437 kts 141°
2026-04-20 14:40 50.25309 72.22750 25622 ft 443 kts 131°
2026-04-20 14:40 50.23521 72.26682 25978 ft 449 kts 123°
2026-04-20 14:40 50.21713 72.30627 26411 ft 448 kts 130°
2026-04-20 14:41 50.19747 72.34438 26755 ft 452 kts 130°
2026-04-20 14:41 50.17625 72.38020 27128 ft 452 kts 140°
2026-04-20 14:41 50.15133 72.41022 27502 ft 451 kts 149°
2026-04-20 14:41 50.12503 72.43723 27965 ft 454 kts 147°
2026-04-20 14:42 50.09915 72.46604 28309 ft 461 kts 145°
2026-04-20 14:42 50.07378 72.49553 28891 ft 462 kts 145°
2026-04-20 14:42 50.04807 72.52599 29394 ft 466 kts 144°
2026-04-20 14:42 50.02249 72.55673 29825 ft 469 kts 143°
2026-04-20 14:43 49.99661 72.58803 30171 ft 471 kts 143°
2026-04-20 14:43 49.97066 72.61957 30503 ft 474 kts 143°
2026-04-20 14:43 49.94463 72.65122 30859 ft 476 kts 144°
2026-04-20 14:43 49.91862 72.68286 31193 ft 478 kts 144°
2026-04-20 14:44 49.89219 72.71500 31467 ft 481 kts 144°
2026-04-20 14:44 49.86588 72.74696 31754 ft 482 kts 144°
2026-04-20 14:44 49.83931 72.77921 32003 ft 485 kts 144°
2026-04-20 14:44 49.81267 72.81149 32245 ft 487 kts 144°
2026-04-20 14:45 49.78608 72.84369 32653 ft 485 kts 144°
2026-04-20 14:45 49.75951 72.87582 32920 ft 487 kts 144°
2026-04-20 14:45 49.73305 72.90776 33311 ft 485 kts 144°
2026-04-20 14:45 49.70634 72.93996 33661 ft 484 kts 144°
2026-04-20 14:46 49.68009 72.97155 33932 ft 484 kts 144°
2026-04-20 14:46 49.65345 73.00359 34249 ft 483 kts 144°
2026-04-20 14:46 49.62714 73.03516 34495 ft 484 kts 144°
2026-04-20 14:46 49.60044 73.06716 34753 ft 483 kts 144°
2026-04-20 14:47 49.57394 73.09889 34981 ft 483 kts 144°
2026-04-20 14:47 49.54748 73.13053 35094 ft 479 kts 144°
2026-04-20 14:48 49.46858 73.22456 35108 ft 481 kts 144°
2026-04-20 14:48 49.41569 73.28738 35102 ft 480 kts 144°
2026-04-20 14:49 49.36298 73.34982 35101 ft 481 kts 144°
2026-04-20 14:49 49.31012 73.41225 35106 ft 480 kts 144°
2026-04-20 14:50 49.25716 73.47464 35114 ft 482 kts 144°
2026-04-20 14:50 49.20401 73.53707 35105 ft 483 kts 144°
2026-04-20 14:51 49.15083 73.59937 35116 ft 482 kts 144°
2026-04-20 14:51 49.09758 73.66157 35117 ft 483 kts 145°
2026-04-20 14:52 49.04430 73.72363 35121 ft 482 kts 145°
2026-04-20 14:52 48.99007 73.78312 35124 ft 479 kts 154°
2026-04-20 14:53 48.92930 73.82385 35126 ft 478 kts 161°
2026-04-20 14:53 48.86736 73.86104 35128 ft 477 kts 162°
2026-04-20 14:54 48.80585 73.89718 35125 ft 477 kts 162°
2026-04-20 14:54 48.74361 73.93342 35127 ft 477 kts 162°
2026-04-20 14:55 48.68193 73.96915 35124 ft 477 kts 162°
2026-04-20 14:55 48.62013 74.00483 35125 ft 476 kts 162°
2026-04-20 14:56 48.55797 74.04060 35130 ft 479 kts 162°
2026-04-20 14:56 48.49567 74.07637 35130 ft 480 kts 162°
2026-04-20 14:57 48.43332 74.11206 35129 ft 479 kts 162°
2026-04-20 14:57 48.37093 74.14769 35131 ft 480 kts 162°
2026-04-20 14:58 48.30878 74.18309 35131 ft 479 kts 162°
2026-04-20 14:58 48.24631 74.21858 35134 ft 479 kts 162°
2026-04-20 14:59 48.18385 74.25397 35133 ft 481 kts 162°
2026-04-20 14:59 48.12111 74.28949 35134 ft 482 kts 162°
2026-04-20 15:00 48.05877 74.32516 35134 ft 482 kts 162°
2026-04-20 15:00 47.99569 74.36114 35134 ft 483 kts 162°
2026-04-20 15:01 47.93343 74.39657 35128 ft 481 kts 162°
2026-04-20 15:01 47.87082 74.43208 35125 ft 483 kts 162°
2026-04-20 15:02 47.80799 74.46764 35127 ft 483 kts 162°
2026-04-20 15:02 47.74493 74.50324 35126 ft 483 kts 162°
2026-04-20 15:03 47.68229 74.53851 35130 ft 483 kts 162°
2026-04-20 15:03 47.61987 74.57356 35130 ft 483 kts 162°
2026-04-20 15:04 47.55659 74.60901 35128 ft 484 kts 162°
2026-04-20 15:04 47.49355 74.64443 35129 ft 484 kts 161°
2026-04-20 15:05 47.45273 74.66739 35121 ft 483 kts 162°
2026-04-20 15:05 47.38981 74.70268 35122 ft 482 kts 162°
2026-04-20 15:06 47.32675 74.73796 35119 ft 484 kts 162°
2026-04-20 15:06 47.26349 74.77327 35121 ft 485 kts 162°
2026-04-20 15:07 47.20351 74.80666 35117 ft 485 kts 162°
2026-04-20 15:07 47.14279 74.84038 35111 ft 486 kts 162°
2026-04-20 15:08 47.05949 74.88651 35115 ft 487 kts 162°
2026-04-20 15:08 46.99614 74.92150 35112 ft 486 kts 162°
2026-04-20 15:09 46.93287 74.95634 35109 ft 487 kts 162°
2026-04-20 15:09 46.86970 74.99184 35103 ft 489 kts 159°
2026-04-20 15:10 46.80746 75.03168 35101 ft 489 kts 159°
2026-04-20 15:10 46.74515 75.07124 35104 ft 489 kts 159°
2026-04-20 15:11 46.68334 75.11036 35098 ft 489 kts 159°
2026-04-20 15:11 46.62388 75.14788 35103 ft 491 kts 159°
2026-04-20 15:12 46.57147 75.18089 35106 ft 491 kts 159°
2026-04-20 15:12 46.51258 75.21787 35104 ft 492 kts 159°
2026-04-20 15:13 46.45123 75.25632 35099 ft 493 kts 159°
2026-04-20 15:13 46.38865 75.29543 35101 ft 494 kts 159°
2026-04-20 15:14 46.32561 75.33472 35103 ft 494 kts 159°
2026-04-20 15:14 46.26264 75.37389 35098 ft 494 kts 159°
2026-04-20 15:15 46.19914 75.41339 35103 ft 497 kts 158°
2026-04-20 15:15 46.13601 75.45280 35102 ft 496 kts 158°
2026-04-20 15:16 46.07302 75.49203 35098 ft 496 kts 158°
2026-04-20 15:16 46.00974 75.53133 35098 ft 496 kts 158°
2026-04-20 15:17 45.94622 75.57069 35096 ft 497 kts 158°
2026-04-20 15:17 45.88253 75.61004 35093 ft 498 kts 158°
2026-04-20 15:18 45.81912 75.64912 35089 ft 499 kts 158°
2026-04-20 15:18 45.75507 75.68851 35083 ft 498 kts 159°
2026-04-20 15:19 45.69173 75.72736 35086 ft 498 kts 159°
2026-04-20 15:19 45.62796 75.76641 35084 ft 501 kts 159°
2026-04-20 15:20 45.56393 75.80551 35085 ft 500 kts 159°
2026-04-20 15:20 45.49998 75.84448 35079 ft 502 kts 159°
2026-04-20 15:21 45.43569 75.88354 35083 ft 502 kts 159°
2026-04-20 15:21 45.37149 75.92247 35085 ft 502 kts 159°
2026-04-20 15:22 45.30752 75.96114 35083 ft 504 kts 159°
2026-04-20 15:22 45.24272 76.00023 35084 ft 505 kts 158°
2026-04-20 15:23 45.17791 76.03923 35085 ft 506 kts 158°
2026-04-20 15:23 45.11317 76.07809 35088 ft 505 kts 158°
2026-04-20 15:24 45.04848 76.11681 35091 ft 508 kts 158°
2026-04-20 15:24 44.98372 76.15550 35088 ft 505 kts 158°
2026-04-20 15:25 44.91932 76.19387 35088 ft 505 kts 158°
2026-04-20 15:25 44.85425 76.23254 35079 ft 508 kts 158°
2026-04-20 15:26 44.78953 76.27091 35080 ft 507 kts 158°
2026-04-20 15:26 44.72482 76.30919 35026 ft 495 kts 158°
2026-04-20 15:26 44.69385 76.32749 34649 ft 481 kts 158°
2026-04-20 15:27 44.66280 76.34580 33958 ft 479 kts 158°
2026-04-20 15:27 44.63253 76.36362 33280 ft 478 kts 158°
2026-04-20 15:27 44.60172 76.38174 32631 ft 478 kts 157°
2026-04-20 15:27 44.57134 76.39959 32025 ft 478 kts 157°
2026-04-20 15:28 44.54065 76.41760 31439 ft 479 kts 157°
2026-04-20 15:28 44.50955 76.43583 30865 ft 479 kts 157°
2026-04-20 15:28 44.47913 76.45366 30319 ft 479 kts 157°
2026-04-20 15:28 44.44866 76.47130 29781 ft 475 kts 159°
2026-04-20 15:29 44.41687 76.48457 29251 ft 469 kts 169°
2026-04-20 15:29 44.38497 76.49033 28733 ft 462 kts 179°
2026-04-20 15:29 44.35300 76.48882 28214 ft 455 kts 188°
2026-04-20 15:29 44.32220 76.48202 27605 ft 451 kts 196°
2026-04-20 15:30 44.29250 76.46846 27015 ft 444 kts 207°
2026-04-20 15:30 44.26565 76.44891 26464 ft 434 kts 215°
2026-04-20 15:30 44.24056 76.42655 25922 ft 428 kts 217°
2026-04-20 15:30 44.21604 76.40327 25393 ft 423 kts 218°
2026-04-20 15:31 44.19201 76.37960 24884 ft 419 kts 219°
2026-04-20 15:31 44.16854 76.35598 24389 ft 417 kts 219°
2026-04-20 15:31 44.14526 76.33226 23904 ft 414 kts 219°
2026-04-20 15:31 44.12218 76.30861 23432 ft 413 kts 219°
2026-04-20 15:32 44.09922 76.28501 22971 ft 410 kts 219°
2026-04-20 15:32 44.07625 76.26137 22513 ft 407 kts 219°
2026-04-20 15:32 44.05366 76.23836 22068 ft 405 kts 216°
2026-04-20 15:32 44.02848 76.22043 21634 ft 405 kts 201°
2026-04-20 15:33 44.00092 76.21194 21169 ft 405 kts 185°
2026-04-20 15:33 43.97290 76.21320 20650 ft 405 kts 172°
2026-04-20 15:33 43.94506 76.21613 20120 ft 401 kts 184°
2026-04-20 15:33 43.91770 76.20966 19598 ft 395 kts 200°
2026-04-20 15:34 43.89336 76.19392 19290 ft 381 kts 217°
2026-04-20 15:34 43.87377 76.17052 19167 ft 363 kts 232°
2026-04-20 15:34 43.85864 76.14282 19130 ft 364 kts 240°
2026-04-20 15:34 43.84530 76.11235 19125 ft 372 kts 242°
2026-04-20 15:35 43.82941 76.08372 19134 ft 377 kts 227°
2026-04-20 15:35 43.80989 76.05981 19114 ft 378 kts 224°
2026-04-20 15:35 43.78992 76.03558 19134 ft 378 kts 225°
2026-04-20 15:35 43.77043 76.01176 19129 ft 378 kts 225°
2026-04-20 15:36 43.74980 75.98858 19130 ft 380 kts 215°
2026-04-20 15:36 43.72618 75.97288 19107 ft 385 kts 201°
2026-04-20 15:36 43.69926 75.96510 18672 ft 396 kts 185°
2026-04-20 15:36 43.67192 75.96689 18012 ft 391 kts 170°
2026-04-20 15:37 43.64656 75.97813 17396 ft 384 kts 154°
2026-04-20 15:37 43.62449 75.99809 16812 ft 376 kts 137°
2026-04-20 15:37 43.60763 76.02489 16271 ft 372 kts 121°
2026-04-20 15:37 43.59679 76.05683 15740 ft 372 kts 104°
2026-04-20 15:38 43.59136 76.09164 15173 ft 371 kts 98°
2026-04-20 15:38 43.58653 76.12635 14553 ft 370 kts 102°
2026-04-20 15:38 43.57786 76.15973 13954 ft 365 kts 115°
2026-04-20 15:38 43.56556 76.18969 13397 ft 360 kts 122°
2026-04-20 15:39 43.55160 76.21764 12854 ft 356 kts 126°
2026-04-20 15:39 43.53663 76.24489 12305 ft 350 kts 128°
2026-04-20 15:39 43.52172 76.27069 11840 ft 341 kts 129°
2026-04-20 15:39 43.50695 76.29549 11458 ft 333 kts 130°
2026-04-20 15:40 43.49200 76.32017 11141 ft 333 kts 130°
2026-04-20 15:40 43.47718 76.34438 10688 ft 336 kts 131°
2026-04-20 15:40 43.46218 76.36874 10320 ft 323 kts 131°
2026-04-20 15:40 43.44805 76.39163 10127 ft 301 kts 131°
2026-04-20 15:41 43.43521 76.41239 10103 ft 274 kts 131°
2026-04-20 15:41 43.42288 76.43227 10181 ft 277 kts 131°
2026-04-20 15:41 43.41014 76.45272 10115 ft 286 kts 132°
2026-04-20 15:41 43.39597 76.47271 9623 ft 291 kts 138°
2026-04-20 15:42 43.38182 76.49109 9335 ft 279 kts 137°
2026-04-20 15:42 43.36760 76.50974 8727 ft 280 kts 137°
2026-04-20 15:42 43.35371 76.52792 8243 ft 276 kts 136°
2026-04-20 15:42 43.33980 76.54613 7717 ft 274 kts 136°
2026-04-20 15:43 43.32618 76.56393 7188 ft 272 kts 136°
2026-04-20 15:43 43.31254 76.58174 6711 ft 269 kts 135°
2026-04-20 15:43 43.29904 76.59937 6181 ft 266 kts 135°
2026-04-20 15:43 43.28613 76.61620 5913 ft 248 kts 135°
2026-04-20 15:44 43.27394 76.63211 5641 ft 233 kts 135°
2026-04-20 15:44 43.26494 76.64967 5441 ft 217 kts 107°
2026-04-20 15:44 43.26123 76.66876 5295 ft 202 kts 105°
2026-04-20 15:44 43.25783 76.68677 5282 ft 187 kts 105°
2026-04-20 15:45 43.25474 76.70389 5099 ft 184 kts 104°
2026-04-20 15:45 43.25177 76.72082 4850 ft 184 kts 104°
2026-04-20 15:45 43.24886 76.73776 4694 ft 178 kts 104°
2026-04-20 15:45 43.24606 76.75420 4459 ft 177 kts 104°
2026-04-20 15:46 43.24335 76.77022 4449 ft 169 kts 104°
2026-04-20 15:46 43.24065 76.78626 4464 ft 178 kts 104°
2026-04-20 15:46 43.23879 76.80316 4443 ft 181 kts 82°
2026-04-20 15:46 43.24401 76.81831 4519 ft 175 kts 56°
2026-04-20 15:47 43.25130 76.83252 4462 ft 185 kts 58°
2026-04-20 15:47 43.25854 76.84725 4424 ft 187 kts 58°
2026-04-20 15:47 43.26578 76.86182 4417 ft 186 kts 58°
2026-04-20 15:47 43.27312 76.87656 4415 ft 187 kts 58°
2026-04-20 15:48 43.28039 76.89114 4422 ft 186 kts 57°
2026-04-20 15:48 43.28785 76.90607 4241 ft 191 kts 57°
2026-04-20 15:48 43.29511 76.92058 4017 ft 178 kts 57°
2026-04-20 15:48 43.30176 76.93388 3758 ft 158 kts 58°
2026-04-20 15:49 43.30763 76.94562 3554 ft 141 kts 58°
2026-04-20 15:49 43.31303 76.95647 3390 ft 140 kts 58°
2026-04-20 15:49 43.31876 76.96793 3225 ft 147 kts 57°
2026-04-20 15:49 43.32474 76.97929 3024 ft 146 kts 57°
2026-04-20 15:50 43.33037 76.99058 2808 ft 142 kts 57°
2026-04-20 15:50 43.33601 77.00197 2680 ft 149 kts 58°
2026-04-20 15:50 43.34189 77.01402 2452 ft 151 kts 58°
2026-04-20 15:50 43.34766 77.02593 2250 ft 145 kts 57°
2026-04-20 15:51 43.35292 77.03656 2229 ft 124 kts 56°
2026-04-20 15:51 43.35718 77.04509 2233 ft 83 kts 56°
2026-04-20 15:51 43.35945 77.04969 2234 ft 24 kts 56°
2026-04-20 15:51 43.35960 77.05087 2234 ft 10 kts 128°